Starlink 5562

operational
NORAD ID: 56336 Int'l Des: 2023-058 Owner: SPXS Country: US Constellation: starlink
LEOCIRCULARRETROGRADESSO

Über Starlink 5562

Beschreibung wird geladen...

Live-Position

3D-Globus wird geladen...

Nächste Überflüge

Höhenverlauf

Altitude vs Time

uPlot chart will show altitude changes over time

Zweizeiliger Elementsatz

1 56336U 23058V 25306.48398100 .00000967 00000-0 79816-4 0 9997
2 56336 97.6025 305.6528 0002504 82.5470 277.6039 15.01261736139043
Epoch: 2. Nov. 2025 • Age: 32 hours

Aktueller Status

Höhe 592.8 km
Geschwindigkeit 7.56 km/s
Subsatellitenpunkt -79.57°S, 109.84°E
Startdatum 27. Apr. 2023
Alter 2.5 years
Typ internet

Technische Details

Klassifizierung Payload
Masse 300.00 kg
Trockenmasse 260.00 kg
Gesamtmasse 300.00 kg
Länge 0.20 m
Durchmesser 2.80 m
Spannweite 9.00 m
Form Box + pan
Hersteller SPXS
Bus-Typ Starlink
Phasenstatus In Orbit
Besitzer/Staat SPXS/US

Große Konstellationen

Loading constellations...